Toronto Pearson, Ontario

8:11 AM EDT on June 22, 2017 (GMT -0400)
Toronto-Pearson International

Weather History for CYYZ - December, 2012

Change the Weather History Date:

Monday, December 10, 2012

  Actual Average Record
Temperature  
Mean Temperature 36 °F -  
Max Temperature 41 °F 31 °F 49 °F (2015)
Min Temperature 32 °F 17 °F 15 °F (2008)
Degree Days  
Heating Degree Days 28    
Moisture  
Dew Point 33 °F    
Average Humidity 84    
Maximum Humidity 100    
Minimum Humidity 56    
Precipitation  
Precipitation 0.16 in 0.08 in - ()
Sea Level Pressure  
Sea Level Pressure 29.62 in    
Wind  
Wind Speed 7 mph ()    
Max Wind Speed 17 mph    
Max Gust Speed 20 mph    
Visibility 9.5 miles    
Events Rain    
Averages and records for this station are not official NWS values.
T = Trace of Precipitation, MM = Missing Value Source: Averaged Metar Reports

Daily Weather History Graph

Daily Weather History Graph

Search for Another Location

Airport or City:

Trip Planner

Search our weather history database for the weather conditions in past years. The results will help you decide how hot, cold, wet, or windy it might be!

Date:

Astronomy

Dec. 10, 2012 Rise Set
Actual Time 7:41 AM EST 4:41 PM EST
Civil Twilight 7:08 AM EST 5:14 PM EST
Nautical Twilight 6:32 AM EST 5:50 PM EST
Astronomical Twilight 5:57 AM EST 6:25 PM EST
Moon 4:19 AM EST (12/10) 2:32 PM EST (12/10)
Length of Visible Light 10h 05m
Length of Day
8h 59m
Waning Crescent, 10% of the Moon is Illuminated
Dec 10
Waning Crescent
Dec 13
New
Dec 20
First Quarter
Dec 28
Full
Jan 4
Last Quarter

Hourly Weather History & Observations

Time (EST) Temp. Windchill Dew Point Humidity Pressure Visibility Wind Dir Wind Speed Gust Speed Precip Events Conditions
12:00 AM 39.2 °F 35.0 °F 37.4 °F 93% 29.74 in 2.5 mi East 5.8 mph - N/A   Light Drizzle
1:00 AM 39 °F - 38 °F 96% 29.68 in 2 mi SE 5.8 mph - - Rain Light Drizzle
1:00 AM 39.2 °F 34.2 °F 39.2 °F 100% 29.68 in 2.5 mi SE 6.9 mph - N/A   Light Drizzle
2:00 AM 39.2 °F 35.9 °F 39.2 °F 100% 29.65 in 2.0 mi ESE 4.6 mph - N/A   Light Drizzle
3:00 AM 41.0 °F - 39.2 °F 93% 29.63 in 1.2 mi East 2.3 mph - N/A   Light Drizzle
3:15 AM 41.0 °F - - N/A% - 0.8 mi East 2.3 mph - N/A   Light Drizzle
3:32 AM 41.0 °F - - N/A% - 1.0 mi East 2.3 mph - N/A Rain Light Rain
3:52 AM 41.0 °F - - N/A% - 2.0 mi ENE 2.3 mph - N/A Rain Light Rain
4:00 AM 41.0 °F - 39.2 °F 93% 29.58 in 3.0 mi Calm Calm - N/A Rain Light Rain
5:00 AM 37.4 °F 32.1 °F 35.6 °F 93% 29.55 in 4.0 mi NW 6.9 mph - N/A Rain Light Rain
6:00 AM 35.6 °F 29.9 °F 35.6 °F 100% 29.53 in 4.0 mi WNW 6.9 mph - N/A Rain Light Rain
6:49 AM 37.4 °F 33.8 °F - N/A% - 4.0 mi WNW 4.6 mph - N/A Rain Light Rain
7:00 AM 37 °F - 36 °F 96% 29.53 in 4 mi NW 4.6 mph - - Rain Light Rain
7:00 AM 37.4 °F 33.8 °F 35.6 °F 93% 29.53 in 4.0 mi NW 4.6 mph - N/A Rain Light Rain
7:36 AM 37.4 °F 33.8 °F - N/A% - 5.0 mi West 4.6 mph - N/A   Overcast
8:00 AM 37.4 °F 34.9 °F 37.4 °F 100% 29.52 in 8.0 mi West 3.5 mph - N/A   Overcast
8:10 AM 37.4 °F 32.8 °F - N/A% - 8.0 mi West 5.8 mph - N/A   Overcast
8:47 AM 41.0 °F 36.4 °F - N/A% - 12.0 mi West 6.9 mph - N/A   Overcast
9:00 AM 41.0 °F 35.8 °F 39.2 °F 93% 29.55 in 12.0 mi WSW 8.1 mph - N/A   Overcast
10:00 AM 41.0 °F 34.3 °F 37.4 °F 87% 29.57 in 15.0 mi West 11.5 mph - N/A   Overcast
11:00 AM 41.0 °F 33.9 °F 37.4 °F 87% 29.58 in 15.0 mi West 12.7 mph - N/A   Overcast
11:49 AM 41.0 °F 34.3 °F - N/A% - 15.0 mi West 11.5 mph - N/A   Overcast
12:00 PM 41.0 °F 35.8 °F 35.6 °F 81% 29.57 in 15.0 mi West 8.1 mph - N/A   Overcast
12:15 PM 39.2 °F 30.2 °F - N/A% - 15.0 mi West 17.3 mph - N/A   Overcast
1:00 PM 40 °F - 35 °F 74% 29.57 in 15 mi West 12.7 mph - -   Partly Cloudy
1:00 PM 39.2 °F 31.6 °F 33.8 °F 81% 29.57 in 15.0 mi West 12.7 mph 18.4 mph N/A   Overcast
2:00 PM 39.2 °F 30.8 °F 33.8 °F 81% 29.57 in 15.0 mi West 15.0 mph - N/A   Overcast
3:00 PM 39.2 °F 32.0 °F 32.0 °F 75% 29.59 in 15.0 mi West 11.5 mph 18.4 mph N/A   Overcast
4:00 PM 39.2 °F 32.5 °F 32.0 °F 75% 29.59 in 15.0 mi WNW 10.4 mph - N/A   Mostly Cloudy
5:00 PM 35.6 °F 28.0 °F 30.2 °F 81% 29.63 in 15.0 mi North 10.4 mph 19.6 mph N/A   Overcast
6:00 PM 35.6 °F 30.7 °F 30.2 °F 81% 29.66 in 15.0 mi NW 5.8 mph - N/A   Overcast
7:00 PM 35 °F - 25 °F 56% 29.70 in 15 mi NW 13.8 mph - -   Mostly Cloudy
7:00 PM 35.6 °F 26.2 °F 24.8 °F 65% 29.70 in 15.0 mi NW 15.0 mph - N/A   Mostly Cloudy
8:00 PM 33.8 °F 23.5 °F 24.8 °F 70% 29.72 in 15.0 mi WNW 16.1 mph - N/A   Mostly Cloudy
9:00 PM 33.8 °F 24.8 °F 23.0 °F 65% 29.75 in 15.0 mi NW 12.7 mph - N/A   Mostly Cloudy
10:00 PM 32.0 °F 22.5 °F 23.0 °F 69% 29.76 in 15.0 mi WNW 12.7 mph - N/A   Mostly Cloudy
11:00 PM 32.0 °F 20.8 °F 21.2 °F 64% 29.78 in 15.0 mi NNW 17.3 mph - N/A   Mostly Cloudy